Location: Unspecified
(43.0000°N, 0.0000°E)
Time: 22:19:57
(UTC+00:00)

PicSat - Pass Details

Date: 17 July 2019
Orbit: 486 x 500 km, 97.5° (Epoch: 18 August)

Event Time Altitude Azimuth Distance (km) Brightness Sun altitude
Exits shadow 21:36:34 39° 166° (SSE) 756 ? -17.2°
Maximum altitude 21:37:50 90° 66° (ENE) 503 ? -17.4°
Drops below altitude 10° 21:41:30 10° 348° (NNW) 1,702 ? -17.8°
Sets 21:43:35 0° 348° (NNW) 2,587 ? -18.0°
